Location: Unspecified
(17.6330°N, 0.0000°E)
Time: 22:06:27
(UTC+00:00)

TIGRISAT - Visible Passes

Search period start: 18 July 2019 00:00
Search period end: 28 July 2019 00:00
Orbit: 605 x 690 km, 97.8° (Epoch: 18 July)

Date Brightness Start Highest point End Pass type
(mag) Time Alt. Az. Time Alt. Az. Time Alt. Az.
18 Jul ? 20:30:59 10° NNE 20:33:46 34° NE 20:33:46 34° NE visible
19 Jul ? 20:56:39 10° N 20:59:45 40° NNW 20:59:45 40° NNW visible
20 Jul ? 19:47:37 10° ENE 19:48:01 11° ENE 19:48:01 11° ENE visible
20 Jul ? 21:22:51 10° NNW 21:25:44 26° NW 21:25:44 26° NW visible
21 Jul ? 20:11:57 10° NE 20:13:59 22° NE 20:13:59 22° NE visible
21 Jul ? 21:49:58 10° NW 21:51:43 14° WNW 21:51:43 14° WNW visible
22 Jul ? 20:37:11 10° NNE 20:39:58 35° NNE 20:39:58 35° NNE visible
23 Jul ? 21:03:00 10° N 21:05:56 35° NNW 21:05:56 35° NNW visible
24 Jul ? 19:53:23 10° NE 19:54:10 13° ENE 19:54:10 13° ENE visible
24 Jul ? 21:29:22 10° NNW 21:31:54 22° NW 21:31:54 22° NW visible
25 Jul ? 20:18:03 10° NNE 20:20:09 24° NE 20:20:09 24° NE visible
25 Jul ? 21:57:05 10° NW 21:57:52 11° WNW 21:57:52 11° WNW visible
26 Jul ? 20:43:27 10° NNE 20:46:05 34° NNE 20:46:05 34° NNE visible
27 Jul ? 21:09:23 10° N 21:12:03 30° NNW 21:12:03 30° NNW visible
